星链-35560(STARLINK-35560)

导读

STARLINK-35560是美国SpaceX星链星座的卫星,于2025年10月19日发射升空,归属于美国。星链项目旨在搭建全球卫星互联网通信网络,为全球用户提供低延迟、高速率的互联网接入服务。这颗卫星加入星链星座后,进一步扩充了星座规模,提升全球覆盖能力与服务稳定性。

Basic Information
目录编号:
66059
目录名称:
STARLINK-35560
国际标识:
2025-235B
轨道中心:
EARTH
卫星名称:
星链-35560
卫星全名:
星链-35560(STARLINK-35560)
卫星状态:
在轨 (已飞行329 天)
发射日期:
2025-10-19 UTC
国别 :
美国 (US)
星等 :
--
This satellite is enrolled in the Space Conjunction Data Service (SCDS) and the current flight risk assessment level is: High Risk
Orbit Information
数据来源 国际轨道数据
星历时间: 2026-09-13T06:31:44+0800
9小时前
查看轨道信息
半长轴: 6840.851km
偏心率: 0.0001264
轨道倾角: 53.158°
近地点辐角 81.065°
升交点赤经 93.141°
平近点角 279.050°
近地点: 461.849km
远地点: 463.579km
周期: 93.848分钟
每日圈数: 15.343966
Detailed Information
固有亮度:
5
最大亮度:
2.5
卫星平台:
Starlink V1.0
覆盖范围:
全球
运营商:
太空探索技术公司
运营商所在国:
美国
制造商(研发单位):
太空探索技术公司
制造商所在国:
美国
使用方式:
暂无
Satellite Introduction
Starlink 计划是 SpaceX 推出的全球卫星互联网项目,通过发射低轨道卫星,为全球尤其是偏远地区提供高速、低延迟的互联网服务。自 2019 年起,Starlink 已部署数千颗卫星,旨在缩小全球数字鸿沟,推动互联网普及。该项目还为军事、航空等行业提供通信支持,带来广泛经济效益。
2D Orbit Map
3D Orbit Map
Orbit Altitude Analysis Chart
Orbit Inclination Analysis Chart
Orbit Comprehensive Analysis Chart
View Comprehensive Chart
Conjunction Data List
Event ID Objects TCA Miss Dist (km) Collision Risk Probability Collision Risk Index (CRI) Action
CDM_260914-161305-811406-605921
2026-09-14T
16:13:48+0000
0.566 km
远距离
1.016416E-4 高风险 0.75
CDM_260914-144005-811406-605921
2026-09-14T
14:40:00+0000
1.235 km
极远距离
8.258066E-6 低风险 0.53
CDM_260914-195205-357006-605921
2026-09-14T
19:52:59+0000
2.641 km
极远距离
1.429268E-6 低风险 0.38
CDM_260914-174705-811406-605921
2026-09-14T
17:47:36+0000
2.342 km
极远距离
1.348589E-6 低风险 0.38
CDM_260914-130605-811406-605921
2026-09-14T
13:06:13+0000
2.958 km
极远距离
9.426755E-7 极低风险 0.34
Miss Distance Evolution Trend with All Objects
Collision Probability Evolution Trend with All Objects